Year,Month,Day,Hour,Minute,Value (Times are PST for temperature in C)
2009,07,15,00,00,12.10
2009,07,15,00,01,12.00
2009,07,15,00,02,11.90
2009,07,15,00,03,11.90
2009,07,15,00,04,11.90
2009,07,15,00,05,11.90
2009,07,15,00,06,11.80
2009,07,15,00,07,11.80
2009,07,15,00,08,11.80
2009,07,15,00,09,11.80
2009,07,15,00,10,11.80
2009,07,15,00,11,11.80
2009,07,15,00,12,11.70
2009,07,15,00,13,11.70
2009,07,15,00,14,11.70
2009,07,15,00,15,11.70
2009,07,15,00,16,11.70
2009,07,15,00,17,11.70
2009,07,15,00,18,11.70
2009,07,15,00,19,11.70
2009,07,15,00,20,11.60
2009,07,15,00,21,11.60
2009,07,15,00,22,11.60
2009,07,15,00,23,11.60
2009,07,15,00,24,11.60
2009,07,15,00,25,11.60
2009,07,15,00,26,11.60
2009,07,15,00,27,11.60
2009,07,15,00,28,11.60
2009,07,15,00,29,11.60
2009,07,15,00,30,11.60
2009,07,15,00,31,11.60
2009,07,15,00,32,11.60
2009,07,15,00,33,11.50
2009,07,15,00,34,11.50
2009,07,15,00,35,11.50
2009,07,15,00,36,11.50
2009,07,15,00,37,11.50
2009,07,15,00,38,11.50
2009,07,15,00,39,11.50
2009,07,15,00,40,11.50
2009,07,15,00,41,11.50
2009,07,15,00,42,11.50
2009,07,15,00,43,11.50
2009,07,15,00,44,11.50
2009,07,15,00,45,11.50
2009,07,15,00,46,11.50
2009,07,15,00,47,11.50
2009,07,15,00,48,11.50
2009,07,15,00,49,11.50
2009,07,15,00,50,11.50
2009,07,15,00,51,11.50
2009,07,15,00,52,11.50
2009,07,15,00,53,11.50
2009,07,15,00,54,11.50
2009,07,15,00,55,11.50
2009,07,15,00,56,11.40
2009,07,15,00,57,11.40
2009,07,15,00,58,11.40
2009,07,15,00,59,11.40
2009,07,15,01,00,11.40
2009,07,15,01,01,11.40
2009,07,15,01,02,11.40
2009,07,15,01,03,11.40
2009,07,15,01,04,11.30
2009,07,15,01,05,11.30
2009,07,15,01,06,11.30
2009,07,15,01,07,11.30
2009,07,15,01,08,11.30
2009,07,15,01,09,11.30
2009,07,15,01,10,11.20
2009,07,15,01,11,11.20
2009,07,15,01,12,11.20
2009,07,15,01,13,11.20
2009,07,15,01,14,11.20
2009,07,15,01,15,11.20
2009,07,15,01,16,11.20
2009,07,15,01,17,11.20
2009,07,15,01,18,11.20
2009,07,15,01,19,11.20
2009,07,15,01,20,11.20
2009,07,15,01,21,11.20
2009,07,15,01,22,11.20
2009,07,15,01,23,11.20
2009,07,15,01,24,11.20
2009,07,15,01,25,11.20
2009,07,15,01,26,11.20
2009,07,15,01,27,11.10
2009,07,15,01,28,11.10
2009,07,15,01,29,11.10
2009,07,15,01,30,11.00
2009,07,15,01,31,11.00
2009,07,15,01,32,11.00
2009,07,15,01,33,11.00
2009,07,15,01,34,10.90
2009,07,15,01,35,10.90
2009,07,15,01,36,10.90
2009,07,15,01,37,10.90
2009,07,15,01,38,10.90
2009,07,15,01,39,10.90
2009,07,15,01,40,10.90
2009,07,15,01,41,10.90
2009,07,15,01,42,10.90
2009,07,15,01,43,10.90
2009,07,15,01,44,10.90
2009,07,15,01,45,10.90
2009,07,15,01,46,10.90
2009,07,15,01,47,10.90
2009,07,15,01,48,10.90
2009,07,15,01,49,10.90
2009,07,15,01,50,10.90
2009,07,15,01,51,10.90
2009,07,15,01,52,10.90
2009,07,15,01,53,10.90
2009,07,15,01,54,10.80
2009,07,15,01,55,10.80
2009,07,15,01,56,10.80
2009,07,15,01,57,10.80
2009,07,15,01,58,10.80
2009,07,15,01,59,10.80
2009,07,15,02,00,10.80
2009,07,15,02,01,10.80
2009,07,15,02,02,10.80
2009,07,15,02,03,10.70
2009,07,15,02,04,10.70
2009,07,15,02,05,10.70
2009,07,15,02,06,10.70
2009,07,15,02,07,10.70
2009,07,15,02,08,10.70
2009,07,15,02,09,10.70
2009,07,15,02,10,10.70
2009,07,15,02,11,10.70
2009,07,15,02,12,10.70
2009,07,15,02,13,10.70
2009,07,15,02,14,10.70
2009,07,15,02,15,10.70
2009,07,15,02,16,10.70
2009,07,15,02,17,10.70
2009,07,15,02,18,10.70
2009,07,15,02,19,10.70
2009,07,15,02,20,10.70
2009,07,15,02,21,10.70
2009,07,15,02,22,10.70
2009,07,15,02,23,10.70
2009,07,15,02,24,10.70
2009,07,15,02,25,10.70
2009,07,15,02,26,10.70
2009,07,15,02,27,10.60
2009,07,15,02,28,10.60
2009,07,15,02,29,10.70
2009,07,15,02,30,10.60
2009,07,15,02,31,10.60
2009,07,15,02,32,10.60
2009,07,15,02,33,10.60
2009,07,15,02,34,10.60
2009,07,15,02,35,10.60
2009,07,15,02,36,10.60
2009,07,15,02,37,10.60
2009,07,15,02,38,10.60
2009,07,15,02,39,10.50
2009,07,15,02,40,10.50
2009,07,15,02,41,10.50
2009,07,15,02,42,10.50
2009,07,15,02,43,10.40
2009,07,15,02,44,10.50
2009,07,15,02,45,10.50
2009,07,15,02,46,10.50
2009,07,15,02,47,10.50
2009,07,15,02,48,10.50
2009,07,15,02,49,10.50
2009,07,15,02,50,10.50
2009,07,15,02,51,10.50
2009,07,15,02,52,10.50
2009,07,15,02,53,10.50
2009,07,15,02,54,10.50
2009,07,15,02,55,10.50
2009,07,15,02,56,10.50
2009,07,15,02,57,10.50
2009,07,15,02,58,10.50
2009,07,15,02,59,10.50
2009,07,15,03,00,10.50
2009,07,15,03,01,10.50
2009,07,15,03,02,10.50
2009,07,15,03,03,10.50
2009,07,15,03,04,10.50
2009,07,15,03,05,10.40
2009,07,15,03,06,10.40
2009,07,15,03,07,10.40
2009,07,15,03,08,10.40
2009,07,15,03,09,10.40
2009,07,15,03,10,10.40
2009,07,15,03,11,10.40
2009,07,15,03,12,10.40
2009,07,15,03,13,10.40
2009,07,15,03,14,10.40
2009,07,15,03,15,10.40
2009,07,15,03,16,10.40
2009,07,15,03,17,10.40
2009,07,15,03,18,10.40
2009,07,15,03,19,10.40
2009,07,15,03,20,10.40
2009,07,15,03,21,10.40
2009,07,15,03,22,10.40
2009,07,15,03,23,10.40
2009,07,15,03,24,10.40
2009,07,15,03,25,10.40
2009,07,15,03,26,10.40
2009,07,15,03,27,10.40
2009,07,15,03,28,10.30
2009,07,15,03,29,10.30
2009,07,15,03,30,10.30
2009,07,15,03,31,10.30
2009,07,15,03,32,10.20
2009,07,15,03,33,10.20
2009,07,15,03,34,10.20
2009,07,15,03,35,10.20
2009,07,15,03,36,10.20
2009,07,15,03,37,10.20
2009,07,15,03,38,10.20
2009,07,15,03,39,10.20
2009,07,15,03,40,10.20
2009,07,15,03,41,10.20
2009,07,15,03,42,10.20
2009,07,15,03,43,10.20
2009,07,15,03,44,10.20
2009,07,15,03,45,10.20
2009,07,15,03,46,10.20
2009,07,15,03,47,10.20
2009,07,15,03,48,10.10
2009,07,15,03,49,10.10
2009,07,15,03,50,10.10
2009,07,15,03,51,10.10
2009,07,15,03,52,10.00
2009,07,15,03,53,10.00
2009,07,15,03,54,10.00
2009,07,15,03,55,10.00
2009,07,15,03,56,10.00
2009,07,15,03,57,10.00
2009,07,15,03,58,10.00
2009,07,15,03,59,10.00
2009,07,15,04,00,10.00
2009,07,15,04,01,10.10
2009,07,15,04,02,10.10
2009,07,15,04,03,10.10
2009,07,15,04,04,10.10
2009,07,15,04,05,10.10
2009,07,15,04,06,10.10
2009,07,15,04,07,10.10
2009,07,15,04,08,10.00
2009,07,15,04,09,10.00
2009,07,15,04,10,10.00
2009,07,15,04,11,10.00
2009,07,15,04,12,10.00
2009,07,15,04,13,10.00
2009,07,15,04,14,10.00
2009,07,15,04,15,10.00
2009,07,15,04,16,10.00
2009,07,15,04,17,10.00
2009,07,15,04,18,10.00
2009,07,15,04,19,10.00
2009,07,15,04,20,10.00
2009,07,15,04,21,10.00
2009,07,15,04,22,9.90
2009,07,15,04,23,9.90
2009,07,15,04,24,9.90
2009,07,15,04,25,9.90
2009,07,15,04,26,9.90
2009,07,15,04,27,10.00
2009,07,15,04,28,10.00
2009,07,15,04,29,10.00
2009,07,15,04,30,10.00
2009,07,15,04,31,10.10
2009,07,15,04,32,10.10
2009,07,15,04,33,10.10
2009,07,15,04,34,10.10
2009,07,15,04,35,10.10
2009,07,15,04,36,10.10
2009,07,15,04,37,10.10
2009,07,15,04,38,10.10
2009,07,15,04,39,10.10
2009,07,15,04,40,10.10
2009,07,15,04,41,10.10
2009,07,15,04,42,10.10
2009,07,15,04,43,10.10
2009,07,15,04,44,10.00
2009,07,15,04,45,10.00
2009,07,15,04,46,10.00
2009,07,15,04,47,10.00
2009,07,15,04,48,10.00
2009,07,15,04,49,10.00
2009,07,15,04,50,9.90
2009,07,15,04,51,9.90
2009,07,15,04,52,9.90
2009,07,15,04,53,9.80
2009,07,15,04,54,9.80
2009,07,15,04,55,9.80
2009,07,15,04,56,9.80
2009,07,15,04,57,9.80
2009,07,15,04,58,9.80
2009,07,15,04,59,9.80
2009,07,15,05,00,9.80
2009,07,15,05,01,9.80
2009,07,15,05,02,9.80
2009,07,15,05,03,9.80
2009,07,15,05,04,9.90
2009,07,15,05,05,9.90
2009,07,15,05,06,9.90
2009,07,15,05,07,9.90
2009,07,15,05,08,9.90
2009,07,15,05,09,9.90
2009,07,15,05,10,9.90
2009,07,15,05,11,9.90
2009,07,15,05,12,9.90
2009,07,15,05,13,9.80
2009,07,15,05,14,9.80
2009,07,15,05,15,9.80
2009,07,15,05,16,9.80
2009,07,15,05,17,9.80
2009,07,15,05,18,9.80
2009,07,15,05,19,9.80
2009,07,15,05,20,9.80
2009,07,15,05,21,9.70
2009,07,15,05,22,9.70
2009,07,15,05,23,9.70
2009,07,15,05,24,9.70
2009,07,15,05,25,9.70
2009,07,15,05,26,9.70
2009,07,15,05,27,9.70
2009,07,15,05,28,9.70
2009,07,15,05,29,9.60
2009,07,15,05,30,9.60
2009,07,15,05,31,9.60
2009,07,15,05,32,9.60
2009,07,15,05,33,9.60
2009,07,15,05,34,9.60
2009,07,15,05,35,9.60
2009,07,15,05,36,9.70
2009,07,15,05,37,9.70
2009,07,15,05,38,9.70
2009,07,15,05,39,9.70
2009,07,15,05,40,9.70
2009,07,15,05,41,9.70
2009,07,15,05,42,9.70
2009,07,15,05,43,9.70
2009,07,15,05,44,9.70
2009,07,15,05,45,9.70
2009,07,15,05,46,9.70
2009,07,15,05,47,9.70
2009,07,15,05,48,9.70
2009,07,15,05,49,9.70
2009,07,15,05,50,9.70
2009,07,15,05,51,9.70
2009,07,15,05,52,9.70
2009,07,15,05,53,9.70
2009,07,15,05,54,9.70
2009,07,15,05,55,9.70
2009,07,15,05,56,9.70
2009,07,15,05,57,9.80
2009,07,15,05,58,9.80
2009,07,15,05,59,9.80
2009,07,15,06,00,9.80
2009,07,15,06,01,9.80
2009,07,15,06,02,9.80
2009,07,15,06,03,9.80
2009,07,15,06,04,9.90
2009,07,15,06,05,9.90
2009,07,15,06,06,9.90
2009,07,15,06,07,9.90
2009,07,15,06,08,9.90
2009,07,15,06,09,9.90
2009,07,15,06,10,9.90
2009,07,15,06,11,10.00
2009,07,15,06,12,10.00
2009,07,15,06,13,9.90
2009,07,15,06,14,10.00
2009,07,15,06,15,9.90
2009,07,15,06,16,10.00
2009,07,15,06,17,10.00
2009,07,15,06,18,10.00
2009,07,15,06,19,10.00
2009,07,15,06,20,10.00
2009,07,15,06,21,10.00
2009,07,15,06,22,10.00
2009,07,15,06,23,10.00
2009,07,15,06,24,10.10
2009,07,15,06,25,10.10
2009,07,15,06,26,10.10
2009,07,15,06,27,10.10
2009,07,15,06,28,10.10
2009,07,15,06,29,10.10
2009,07,15,06,30,10.10
2009,07,15,06,31,10.10
2009,07,15,06,32,10.20
2009,07,15,06,33,10.20
2009,07,15,06,34,10.20
2009,07,15,06,35,10.30
2009,07,15,06,36,10.30
2009,07,15,06,37,10.30
2009,07,15,06,38,10.30
2009,07,15,06,39,10.40
2009,07,15,06,40,10.40
2009,07,15,06,41,10.40
2009,07,15,06,42,10.40
2009,07,15,06,43,10.50
2009,07,15,06,44,10.50
2009,07,15,06,45,10.60
2009,07,15,06,46,10.60
2009,07,15,06,47,10.60
2009,07,15,06,48,10.60
2009,07,15,06,49,10.60
2009,07,15,06,50,10.70
2009,07,15,06,51,10.70
2009,07,15,06,52,10.70
2009,07,15,06,53,10.70
2009,07,15,06,54,10.80
2009,07,15,06,55,10.80
2009,07,15,06,56,10.80
2009,07,15,06,57,10.80
2009,07,15,06,58,10.90
2009,07,15,06,59,10.90
2009,07,15,07,00,10.90
2009,07,15,07,01,10.90
2009,07,15,07,02,11.00
2009,07,15,07,03,11.00
2009,07,15,07,04,11.00
2009,07,15,07,05,11.10
2009,07,15,07,06,11.10
2009,07,15,07,07,11.10
2009,07,15,07,08,11.10
2009,07,15,07,09,11.20
2009,07,15,07,10,11.20
2009,07,15,07,11,11.20
2009,07,15,07,12,11.30
2009,07,15,07,13,11.30
2009,07,15,07,14,11.30
2009,07,15,07,15,11.40
2009,07,15,07,16,11.50
2009,07,15,07,17,11.50
2009,07,15,07,18,11.60
2009,07,15,07,19,11.60
2009,07,15,07,20,11.70
2009,07,15,07,21,11.80
2009,07,15,07,22,11.80
2009,07,15,07,23,11.90
2009,07,15,07,24,12.00
2009,07,15,07,25,12.10
2009,07,15,07,26,12.20
2009,07,15,07,27,12.30
2009,07,15,07,28,12.40
2009,07,15,07,29,12.50
2009,07,15,07,30,12.60
2009,07,15,07,31,12.70
2009,07,15,07,32,12.80
2009,07,15,07,33,13.00
2009,07,15,07,34,13.10
2009,07,15,07,35,13.20
2009,07,15,07,36,13.30
2009,07,15,07,37,13.40
2009,07,15,07,38,13.50
2009,07,15,07,39,13.60
2009,07,15,07,40,13.70
2009,07,15,07,41,13.70
2009,07,15,07,42,13.80
2009,07,15,07,43,13.90
2009,07,15,07,44,14.00
2009,07,15,07,45,14.10
2009,07,15,07,46,14.20
2009,07,15,07,47,14.30
2009,07,15,07,48,14.40
2009,07,15,07,49,14.40
2009,07,15,07,50,14.50
2009,07,15,07,51,14.60
2009,07,15,07,52,14.70
2009,07,15,07,53,14.70
2009,07,15,07,54,14.80
2009,07,15,07,55,14.90
2009,07,15,07,56,15.00
2009,07,15,07,57,15.00
2009,07,15,07,58,15.00
2009,07,15,07,59,15.00
2009,07,15,08,00,15.10
2009,07,15,08,01,15.20
2009,07,15,08,02,15.30
2009,07,15,08,03,15.30
2009,07,15,08,04,15.40
2009,07,15,08,05,15.50
2009,07,15,08,06,15.50
2009,07,15,08,07,15.60
2009,07,15,08,08,15.70
2009,07,15,08,09,15.80
2009,07,15,08,10,15.90
2009,07,15,08,11,15.90
2009,07,15,08,12,16.00
2009,07,15,08,13,16.10
2009,07,15,08,14,16.10
2009,07,15,08,15,16.20
2009,07,15,08,16,16.30
2009,07,15,08,17,16.30
2009,07,15,08,18,16.30
2009,07,15,08,19,16.40
2009,07,15,08,20,16.50
2009,07,15,08,21,16.60
2009,07,15,08,22,16.70
2009,07,15,08,23,16.80
2009,07,15,08,24,16.90
2009,07,15,08,25,17.00
2009,07,15,08,26,17.10
2009,07,15,08,27,17.20
2009,07,15,08,28,17.30
2009,07,15,08,29,17.50
2009,07,15,08,30,17.60
2009,07,15,08,31,17.70
2009,07,15,08,32,17.80
2009,07,15,08,33,17.90
2009,07,15,08,34,17.90
2009,07,15,08,35,17.90
2009,07,15,08,36,18.00
2009,07,15,08,37,18.00
2009,07,15,08,38,18.00
2009,07,15,08,39,18.10
2009,07,15,08,40,18.10
2009,07,15,08,41,18.10
2009,07,15,08,42,18.10
2009,07,15,08,43,18.10
2009,07,15,08,44,18.20
2009,07,15,08,45,18.20
2009,07,15,08,46,18.30
2009,07,15,08,47,18.40
2009,07,15,08,48,18.40
2009,07,15,08,49,18.50
2009,07,15,08,50,18.60
2009,07,15,08,51,18.60
2009,07,15,08,52,18.50
2009,07,15,08,53,18.50
2009,07,15,08,54,18.40
2009,07,15,08,55,18.40
2009,07,15,08,56,18.30
2009,07,15,08,57,18.30
2009,07,15,08,58,18.40
2009,07,15,08,59,18.40
2009,07,15,09,00,18.40
2009,07,15,09,01,18.40
2009,07,15,09,02,18.50
2009,07,15,09,03,18.50
2009,07,15,09,04,18.60
2009,07,15,09,05,18.70
2009,07,15,09,06,18.80
2009,07,15,09,07,18.90
2009,07,15,09,08,19.00
2009,07,15,09,09,19.10
2009,07,15,09,10,19.10
2009,07,15,09,11,19.20
2009,07,15,09,12,19.20
2009,07,15,09,13,19.30
2009,07,15,09,14,19.30
2009,07,15,09,15,19.30
2009,07,15,09,16,19.30
2009,07,15,09,17,19.30
2009,07,15,09,18,19.30
2009,07,15,09,19,19.40
2009,07,15,09,20,19.40
2009,07,15,09,21,19.40
2009,07,15,09,22,19.40
2009,07,15,09,23,19.50
2009,07,15,09,24,19.60
2009,07,15,09,25,19.60
2009,07,15,09,26,19.70
2009,07,15,09,27,19.70
2009,07,15,09,28,19.70
2009,07,15,09,29,19.70
2009,07,15,09,30,19.80
2009,07,15,09,31,19.90
2009,07,15,09,32,20.00
2009,07,15,09,33,20.10
2009,07,15,09,34,20.10
2009,07,15,09,35,20.20
2009,07,15,09,36,20.20
2009,07,15,09,37,20.30
2009,07,15,09,38,20.30
2009,07,15,09,39,20.40
2009,07,15,09,40,20.50
2009,07,15,09,41,20.60
2009,07,15,09,42,20.70
2009,07,15,09,43,20.60
2009,07,15,09,44,20.60
2009,07,15,09,45,20.40
2009,07,15,09,46,20.30
2009,07,15,09,47,20.30
2009,07,15,09,48,20.30
2009,07,15,09,49,20.30
2009,07,15,09,50,20.30
2009,07,15,09,51,20.30
2009,07,15,09,52,20.30
2009,07,15,09,53,20.30
2009,07,15,09,54,20.30
2009,07,15,09,55,20.40
2009,07,15,09,56,20.50
2009,07,15,09,57,20.60
2009,07,15,09,58,20.70
2009,07,15,09,59,20.80
2009,07,15,10,00,20.90
2009,07,15,10,01,20.90
2009,07,15,10,02,20.90
2009,07,15,10,03,20.90
2009,07,15,10,04,20.70
2009,07,15,10,05,20.60
2009,07,15,10,06,20.50
2009,07,15,10,07,20.40
2009,07,15,10,08,20.40
2009,07,15,10,09,20.40
2009,07,15,10,10,20.50
2009,07,15,10,11,20.60
2009,07,15,10,12,20.60
2009,07,15,10,13,20.70
2009,07,15,10,14,20.80
2009,07,15,10,15,20.70
2009,07,15,10,16,20.80
2009,07,15,10,17,20.70
2009,07,15,10,18,20.60
2009,07,15,10,19,20.60
2009,07,15,10,20,20.60
2009,07,15,10,21,20.50
2009,07,15,10,22,20.40
2009,07,15,10,23,20.40
2009,07,15,10,24,20.40
2009,07,15,10,25,20.50
2009,07,15,10,26,20.50
2009,07,15,10,27,20.60
2009,07,15,10,28,20.70
2009,07,15,10,29,20.90
2009,07,15,10,30,21.10
2009,07,15,10,31,21.20
2009,07,15,10,32,21.20
2009,07,15,10,33,21.30
2009,07,15,10,34,21.30
2009,07,15,10,35,21.40
2009,07,15,10,36,21.50
2009,07,15,10,37,21.60
2009,07,15,10,38,21.70
2009,07,15,10,39,21.80
2009,07,15,10,40,21.80
2009,07,15,10,41,21.80
2009,07,15,10,42,21.70
2009,07,15,10,43,21.80
2009,07,15,10,44,21.80
2009,07,15,10,45,21.90
2009,07,15,10,46,21.90
2009,07,15,10,47,21.90
2009,07,15,10,48,21.90
2009,07,15,10,49,21.80
2009,07,15,10,50,21.80
2009,07,15,10,51,21.80
2009,07,15,10,52,21.80
2009,07,15,10,53,21.90
2009,07,15,10,54,21.90
2009,07,15,10,55,21.90
2009,07,15,10,56,21.80
2009,07,15,10,57,21.70
2009,07,15,10,58,21.60
2009,07,15,10,59,21.60
2009,07,15,11,00,21.70
2009,07,15,11,01,21.80
2009,07,15,11,02,21.80
2009,07,15,11,03,21.90
2009,07,15,11,04,21.90
2009,07,15,11,05,21.90
2009,07,15,11,06,21.80
2009,07,15,11,07,21.50
2009,07,15,11,08,21.40
2009,07,15,11,09,21.40
2009,07,15,11,10,21.40
2009,07,15,11,11,21.30
2009,07,15,11,12,21.30
2009,07,15,11,13,21.30
2009,07,15,11,14,21.20
2009,07,15,11,15,21.10
2009,07,15,11,16,21.10
2009,07,15,11,17,21.10
2009,07,15,11,18,21.10
2009,07,15,11,19,21.20
2009,07,15,11,20,21.20
2009,07,15,11,21,21.20
2009,07,15,11,22,21.30
2009,07,15,11,23,21.40
2009,07,15,11,24,21.40
2009,07,15,11,25,21.30
2009,07,15,11,26,21.20
2009,07,15,11,27,21.10
2009,07,15,11,28,21.10
2009,07,15,11,29,21.20
2009,07,15,11,30,21.20
2009,07,15,11,31,21.20
2009,07,15,11,32,21.30
2009,07,15,11,33,21.30
2009,07,15,11,34,21.40
2009,07,15,11,35,21.40
2009,07,15,11,36,21.50
2009,07,15,11,37,21.60
2009,07,15,11,38,21.70
2009,07,15,11,39,21.80
2009,07,15,11,40,21.90
2009,07,15,11,41,22.00
2009,07,15,11,42,22.00
2009,07,15,11,43,21.90
2009,07,15,11,44,21.70
2009,07,15,11,45,21.60
2009,07,15,11,46,21.50
2009,07,15,11,47,21.50
2009,07,15,11,48,21.60
2009,07,15,11,49,21.60
2009,07,15,11,50,21.60
2009,07,15,11,51,21.60
2009,07,15,11,52,21.50
2009,07,15,11,53,21.50
2009,07,15,11,54,21.40
2009,07,15,11,55,21.50
2009,07,15,11,56,21.60
2009,07,15,11,57,21.80
2009,07,15,11,58,21.90
2009,07,15,11,59,22.10
2009,07,15,12,00,22.20
2009,07,15,12,01,22.00
2009,07,15,12,02,22.00
2009,07,15,12,03,22.00
2009,07,15,12,04,21.90
2009,07,15,12,05,21.80
2009,07,15,12,06,21.80
2009,07,15,12,07,21.90
2009,07,15,12,08,21.90
2009,07,15,12,09,21.80
2009,07,15,12,10,21.80
2009,07,15,12,11,21.70
2009,07,15,12,12,21.70
2009,07,15,12,13,21.70
2009,07,15,12,14,21.60
2009,07,15,12,15,21.60
2009,07,15,12,16,21.70
2009,07,15,12,17,21.80
2009,07,15,12,18,22.00
2009,07,15,12,19,22.20
2009,07,15,12,20,22.30
2009,07,15,12,21,22.30
2009,07,15,12,22,22.30
2009,07,15,12,23,22.30
2009,07,15,12,24,22.20
2009,07,15,12,25,22.20
2009,07,15,12,26,22.20
2009,07,15,12,27,22.30
2009,07,15,12,28,22.20
2009,07,15,12,29,22.10
2009,07,15,12,30,21.90
2009,07,15,12,31,21.80
2009,07,15,12,32,21.80
2009,07,15,12,33,21.80
2009,07,15,12,34,21.90
2009,07,15,12,35,22.10
2009,07,15,12,36,22.20
2009,07,15,12,37,22.40
2009,07,15,12,38,22.50
2009,07,15,12,39,22.60
2009,07,15,12,40,22.60
2009,07,15,12,41,22.50
2009,07,15,12,42,22.30
2009,07,15,12,43,22.30
2009,07,15,12,44,22.20
2009,07,15,12,45,22.30
2009,07,15,12,46,22.30
2009,07,15,12,47,22.40
2009,07,15,12,48,22.40
2009,07,15,12,49,22.50
2009,07,15,12,50,22.40
2009,07,15,12,51,22.30
2009,07,15,12,52,22.30
2009,07,15,12,53,22.30
2009,07,15,12,54,22.40
2009,07,15,12,55,22.40
2009,07,15,12,56,22.30
2009,07,15,12,57,22.30
2009,07,15,12,58,22.20
2009,07,15,12,59,22.10
2009,07,15,13,00,22.10
2009,07,15,13,01,22.00
2009,07,15,13,02,22.00
2009,07,15,13,03,22.00
2009,07,15,13,04,22.20
2009,07,15,13,05,22.30
2009,07,15,13,06,22.30
2009,07,15,13,07,22.30
2009,07,15,13,08,22.30
2009,07,15,13,09,22.40
2009,07,15,13,10,22.50
2009,07,15,13,11,22.60
2009,07,15,13,12,22.70
2009,07,15,13,13,22.80
2009,07,15,13,14,22.80
2009,07,15,13,15,22.80
2009,07,15,13,16,22.80
2009,07,15,13,17,22.90
2009,07,15,13,18,23.00
2009,07,15,13,19,23.10
2009,07,15,13,20,23.20
2009,07,15,13,21,23.30
2009,07,15,13,22,23.40
2009,07,15,13,23,23.50
2009,07,15,13,24,23.60
2009,07,15,13,25,23.80
2009,07,15,13,26,23.90
2009,07,15,13,27,23.90
2009,07,15,13,28,23.90
2009,07,15,13,29,23.90
2009,07,15,13,30,23.90
2009,07,15,13,31,23.90
2009,07,15,13,32,23.90
2009,07,15,13,33,23.80
2009,07,15,13,34,23.70
2009,07,15,13,35,23.60
2009,07,15,13,36,23.60
2009,07,15,13,37,23.50
2009,07,15,13,38,23.40
2009,07,15,13,39,23.20
2009,07,15,13,40,23.20
2009,07,15,13,41,23.20
2009,07,15,13,42,23.20
2009,07,15,13,43,23.20
2009,07,15,13,44,23.10
2009,07,15,13,45,23.00
2009,07,15,13,46,23.10
2009,07,15,13,47,23.20
2009,07,15,13,48,23.30
2009,07,15,13,49,23.20
2009,07,15,13,50,23.00
2009,07,15,13,51,22.90
2009,07,15,13,52,22.70
2009,07,15,13,53,22.60
2009,07,15,13,54,22.40
2009,07,15,13,55,22.40
2009,07,15,13,56,22.40
2009,07,15,13,57,22.50
2009,07,15,13,58,22.70
2009,07,15,13,59,22.80
2009,07,15,14,00,22.70
2009,07,15,14,01,22.70
2009,07,15,14,02,22.70
2009,07,15,14,03,22.80
2009,07,15,14,04,22.90
2009,07,15,14,05,23.00
2009,07,15,14,06,23.10
2009,07,15,14,07,23.30
2009,07,15,14,08,23.50
2009,07,15,14,09,23.60
2009,07,15,14,10,23.70
2009,07,15,14,11,23.60
2009,07,15,14,12,23.60
2009,07,15,14,13,23.70
2009,07,15,14,14,23.80
2009,07,15,14,15,23.80
2009,07,15,14,16,23.70
2009,07,15,14,17,23.70
2009,07,15,14,18,23.80
2009,07,15,14,19,23.80
2009,07,15,14,20,23.90
2009,07,15,14,21,24.00
2009,07,15,14,22,24.00
2009,07,15,14,23,24.00
2009,07,15,14,24,24.00
2009,07,15,14,25,23.90
2009,07,15,14,26,23.70
2009,07,15,14,27,23.50
2009,07,15,14,28,23.40
2009,07,15,14,29,23.30
2009,07,15,14,30,23.20
2009,07,15,14,31,23.10
2009,07,15,14,32,23.10
2009,07,15,14,33,23.00
2009,07,15,14,34,23.00
2009,07,15,14,35,23.00
2009,07,15,14,36,23.00
2009,07,15,14,37,23.10
2009,07,15,14,38,23.10
2009,07,15,14,39,23.20
2009,07,15,14,40,23.30
2009,07,15,14,41,23.40
2009,07,15,14,42,23.60
2009,07,15,14,43,23.70
2009,07,15,14,44,23.80
2009,07,15,14,45,23.90
2009,07,15,14,46,23.90
2009,07,15,14,47,23.90
2009,07,15,14,48,24.00
2009,07,15,14,49,24.00
2009,07,15,14,50,23.90
2009,07,15,14,51,23.80
2009,07,15,14,52,23.70
2009,07,15,14,53,23.70
2009,07,15,14,54,23.60
2009,07,15,14,55,23.60
2009,07,15,14,56,23.50
2009,07,15,14,57,23.40
2009,07,15,14,58,23.40
2009,07,15,14,59,23.30
2009,07,15,15,00,23.30
2009,07,15,15,01,23.30
2009,07,15,15,02,23.30
2009,07,15,15,03,23.30
2009,07,15,15,04,23.40
2009,07,15,15,05,23.40
2009,07,15,15,06,23.40
2009,07,15,15,07,23.30
2009,07,15,15,08,23.30
2009,07,15,15,09,23.40
2009,07,15,15,10,23.40
2009,07,15,15,11,23.50
2009,07,15,15,12,23.70
2009,07,15,15,13,23.80
2009,07,15,15,14,23.90
2009,07,15,15,15,24.00
2009,07,15,15,16,24.10
2009,07,15,15,17,24.20
2009,07,15,15,18,24.30
2009,07,15,15,19,24.30
2009,07,15,15,20,24.30
2009,07,15,15,21,24.30
2009,07,15,15,22,24.30
2009,07,15,15,23,24.30
2009,07,15,15,24,24.30
2009,07,15,15,25,24.40
2009,07,15,15,26,24.40
2009,07,15,15,27,24.40
2009,07,15,15,28,24.30
2009,07,15,15,29,24.30
2009,07,15,15,30,24.20
2009,07,15,15,31,24.20
2009,07,15,15,32,24.10
2009,07,15,15,33,24.00
2009,07,15,15,34,23.90
2009,07,15,15,35,23.90
2009,07,15,15,36,24.00
2009,07,15,15,37,24.10
2009,07,15,15,38,24.20
2009,07,15,15,39,24.40
2009,07,15,15,40,24.50
2009,07,15,15,41,24.60
2009,07,15,15,42,24.80
2009,07,15,15,43,24.90
2009,07,15,15,44,25.10
2009,07,15,15,45,25.20
2009,07,15,15,46,25.30
2009,07,15,15,47,25.40
2009,07,15,15,48,25.40
2009,07,15,15,49,25.40
2009,07,15,15,50,25.40
2009,07,15,15,51,25.40
2009,07,15,15,52,25.30
2009,07,15,15,53,25.30
2009,07,15,15,54,25.40
2009,07,15,15,55,25.40
2009,07,15,15,56,25.40
2009,07,15,15,57,25.40
2009,07,15,15,58,25.40
2009,07,15,15,59,25.40
2009,07,15,16,00,25.40
2009,07,15,16,01,25.30
2009,07,15,16,02,25.20
2009,07,15,16,03,25.10
2009,07,15,16,04,25.10
2009,07,15,16,05,25.00
2009,07,15,16,06,24.90
2009,07,15,16,07,24.90
2009,07,15,16,08,24.80
2009,07,15,16,09,24.90
2009,07,15,16,10,25.00
2009,07,15,16,11,25.00
2009,07,15,16,12,25.10
2009,07,15,16,13,25.10
2009,07,15,16,14,25.10
2009,07,15,16,15,25.10
2009,07,15,16,16,25.10
2009,07,15,16,17,25.10
2009,07,15,16,18,25.00
2009,07,15,16,19,24.80
2009,07,15,16,20,24.70
2009,07,15,16,21,24.50
2009,07,15,16,22,24.20
2009,07,15,16,23,24.10
2009,07,15,16,24,24.00
2009,07,15,16,25,24.00
2009,07,15,16,26,23.90
2009,07,15,16,27,23.90
2009,07,15,16,28,23.90
2009,07,15,16,29,23.90
2009,07,15,16,30,23.90
2009,07,15,16,31,23.90
2009,07,15,16,32,24.10
2009,07,15,16,33,24.20
2009,07,15,16,34,24.20
2009,07,15,16,35,24.30
2009,07,15,16,36,24.30
2009,07,15,16,37,24.30
2009,07,15,16,38,24.40
2009,07,15,16,39,24.40
2009,07,15,16,40,24.40
2009,07,15,16,41,24.40
2009,07,15,16,42,24.30
2009,07,15,16,43,24.30
2009,07,15,16,44,24.30
2009,07,15,16,45,24.30
2009,07,15,16,46,24.40
2009,07,15,16,47,24.50
2009,07,15,16,48,24.50
2009,07,15,16,49,24.60
2009,07,15,16,50,24.70
2009,07,15,16,51,24.70
2009,07,15,16,52,24.70
2009,07,15,16,53,24.70
2009,07,15,16,54,24.70
2009,07,15,16,55,24.70
2009,07,15,16,56,24.70
2009,07,15,16,57,24.70
2009,07,15,16,58,24.70
2009,07,15,16,59,24.70
2009,07,15,17,00,24.70
2009,07,15,17,01,24.70
2009,07,15,17,02,24.70
2009,07,15,17,03,24.70
2009,07,15,17,04,24.70
2009,07,15,17,05,24.70
2009,07,15,17,06,24.70
2009,07,15,17,07,24.50
2009,07,15,17,08,24.50
2009,07,15,17,09,24.50
2009,07,15,17,10,24.40
2009,07,15,17,11,24.40
2009,07,15,17,12,24.30
2009,07,15,17,13,24.30
2009,07,15,17,14,24.30
2009,07,15,17,15,24.30
2009,07,15,17,16,24.30
2009,07,15,17,17,24.30
2009,07,15,17,18,24.30
2009,07,15,17,19,24.40
2009,07,15,17,20,24.40
2009,07,15,17,21,24.40
2009,07,15,17,22,24.40
2009,07,15,17,23,24.40